This is the latest recevied weather packets stored in our database for station/object EA3RCF. If no packets are shown the sender has not sent any weather packets the latest 10 day(s).
| Time | Temp. | Humidity | Pressure | Rain* | Wind** | Luminosity | Snow |
|---|---|---|---|---|---|---|---|
| 1777937598 | 11.11° C | 94% | 1012.2 hPa | 0 mm | - | - | - |
| 1777937301 | 11.11° C | 94% | 1012.2 hPa | 0 mm | - | - | - |
| 1777937011 | 11.11° C | 94% | 1012.2 hPa | 0 mm | - | - | - |
| 1777936720 | 11.11° C | 94% | 1012.1 hPa | 0 mm | - | - | - |
| 1777936401 | 11.11° C | 94% | 1011.9 hPa | 0 mm | - | - | - |
| 1777936103 | 11.11° C | 94% | 1011.9 hPa | 0 mm | - | - | - |
| 1777935812 | 11.11° C | 94% | 1011.9 hPa | 0 mm | - | - | - |
| 1777935513 | 11.11° C | 94% | 1011.8 hPa | 0 mm | - | - | - |
| 1777935194 | 11.11° C | 94% | 1011.7 hPa | 0 mm | - | - | - |
| 1777934902 | 11.11° C | 94% | 1011.7 hPa | 0 mm | - | - | - |
| 1777934603 | 11.67° C | 94% | 1011.7 hPa | 0 mm | - | - | - |
| 1777934312 | 11.67° C | 94% | 1011.7 hPa | 0 mm | - | - | - |
| 1777934012 | 11.67° C | 94% | 1011.7 hPa | 0 mm | - | - | - |
| 1777933694 | 11.67° C | 94% | 1011.6 hPa | 0 mm | - | - | - |
| 1777933395 | 11.67° C | 94% | 1011.7 hPa | 1.02 mm | - | - | - |
| 1777933104 | 11.67° C | 94% | 1011.8 hPa | 3.05 mm | - | - | - |
| 1777932812 | 11.67° C | 94% | 1011.8 hPa | 5.08 mm | - | - | - |
| 1777932502 | 11.67° C | 94% | 1011.7 hPa | 7.87 mm | - | - | - |
| 1777932203 | 11.67° C | 94% | 1011.8 hPa | 8.89 mm | - | - | - |
| 1777931904 | 11.67° C | 94% | 1011.8 hPa | 10.92 mm | - | - | - |
| 1777931596 | 12.22° C | 94% | 1011.8 hPa | 11.94 mm | - | - | - |
| 1777931298 | 12.22° C | 94% | 1012 hPa | 12.95 mm | - | - | - |
| 1777931007 | 12.22° C | 94% | 1012.2 hPa | 12.95 mm | - | - | - |
| 1777930709 | 12.22° C | 94% | 1012.2 hPa | 13.97 mm | - | - | - |
| 1777930410 | 12.22° C | 94% | 1011.9 hPa | 14.99 mm | - | - | - |
* Rain latest hour (hover to see other rain measurements)
** Current wind speed in m/s (hover to see current wind gust speed)